Zurück zum Katalog

STARLINK-1460

AktivKommunikationVLEO
NORAD 45676·PAYLOAD·🇺🇸 United States

Gestartet Jun 4, 2020 von Cape Canaveral Space Force Station

Loading…

Nächste Überflüge (nächste 24 Stunden)

TLE

AktuellSource: CelesTrak SupGP

Epoche: Sep 14, 2026, 20:54 UTC

1 45676C 20035V   26257.87131944  .00065575  00000+0  14233-2 0  2576
2 45676  53.1515 258.6210 0002786  46.9890 123.8734 15.43758962    12

Verfolge STARLINK-1460 in Echtzeit mit AllMySat

Download on the App Store